This demonstration page uses our WeatherBlox Daily Observations layout. Learn more.

Left ArrowRight Arrow

38.88101, -77.10428

Hourly Observations for September 1, 2020

Temp ( °F °C ) Dew Point ( °F °C ) Humidity (%) Winds ( mph kmh ) Pressure ( in mb ) Visibility ( mi km ) Precip ( " mm )
12:52 am 00:52 Cloudy 69 20.6 66 18.9 90 90 ENE 9 15 30.05 1018 10 16 0.00 0.00
1:52 am 01:52 Cloudy 69 20.6 65 18.3 87 87 NE 8 13 30.05 1018 10 16 0.00 0.00
2:52 am 02:52 Cloudy 69 20.6 65 18.3 87 87 ENE 9 15 30.04 1017 10 16 0.00 0.00
3:52 am 03:52 Cloudy 69 20.6 66 18.9 90 90 NE 6 9 30.04 1017 10 16 0.00 0.00
4:52 am 04:52 Cloudy 69 20.6 66 18.9 90 90 NE 6 9 30.04 1017 10 16 0.00 0.00
5:29 am 05:29 Cloudy with Rain 68 20 66 18.9 93 93 NE 10 17 30.04 1017 3 5 0.09 2.29
5:52 am 05:52 Cloudy with Drizzle 69 20.6 67 19.4 93 93 E 5 7 30.03 1017 10 16 0.10 2.54
5:59 am 05:59 Cloudy with Drizzle 69 20.6 67 19.4 93 93 NE 5 7 30.04 1017 10 16 0.00 0.00
6:52 am 06:52 Cloudy 69 20.6 67 19.4 93 93 NNE 5 7 30.05 1018 10 16 0.00 0.00
7:09 am 07:09 Cloudy 70 21.1 67 19.4 90 90 N 3 6 30.06 1018 10 16 0.00 0.00
7:52 am 07:52 Cloudy 70 21.1 67 19.4 90 90 NNE 8 13 30.05 1018 10 16 0.00 0.00
8:17 am 08:17 Cloudy 70 21.1 67 19.4 90 90 NNE 9 15 30.06 1018 10 16 0.00 0.00
8:52 am 08:52 Cloudy with Light Rain 70 21.1 68 20 93 93 NNE 6 9 30.06 1018 10 16 0.00 0.00
9:22 am 09:22 Cloudy 71 21.7 68 20 90 90 NNE 6 9 30.07 1018 10 16 0.00 0.00
9:44 am 09:44 Cloudy with Light Rain 72 22.2 69 20.6 91 91 NE 7 11 30.06 1018 9 14 0.00 0.00
9:52 am 09:52 Cloudy 72 22.2 69 20.6 91 91 NE 5 7 30.06 1018 9 14 0.00 0.00
10:28 am 10:28 Cloudy 73 22.8 70 21.1 90 90 NE 6 9 30.08 1019 10 16 0.00 0.00
10:42 am 10:42 Cloudy 73 22.8 70 21.1 90 90 ENE 7 11 30.08 1019 10 16 0.00 0.00
10:52 am 10:52 Cloudy 74 23.3 70 21.1 88 88 NE 5 7 30.08 1019 10 16 0.00 0.00
11:13 am 11:13 Cloudy 74 23.3 70 21.1 88 88 Calm 30.08 1019 10 16 0.00 0.00
11:34 am 11:34 Cloudy 75 23.9 71 21.7 88 88 E 5 7 30.07 1018 10 16 0.00 0.00
11:52 am 11:52 Cloudy 77 25 71 21.7 82 82 ENE 6 9 30.07 1018 10 16 0.00 0.00
12:44 pm 12:44 Cloudy 77 25 70 21.1 79 79 E 3 6 30.08 1019 10 16 0.00 0.00
12:52 pm 12:52 Cloudy 77 25 70 21.1 79 79 ESE 6 9 30.07 1018 10 16 0.00 0.00
1:08 pm 13:08 Cloudy 77 25 70 21.1 79 79 E 6 9 30.06 1018 10 16 0.00 0.00
1:52 pm 13:52 Cloudy 79 26.1 70 21.1 74 74 E 7 11 30.05 1018 10 16 0.00 0.00
2:33 pm 14:33 Cloudy 79 26.1 70 21.1 74 74 ESE 8 13 30.04 1017 10 16 0.00 0.00
2:52 pm 14:52 Mostly Cloudy 80 26.7 70 21.1 71 71 SE 7 11 30.03 1017 10 16 0.00 0.00
3:11 pm 15:11 Mostly Cloudy 80 26.7 71 21.7 74 74 SE 7 11 30.02 1017 10 16 0.00 0.00
3:47 pm 15:47 Mostly Cloudy 81 27 70 21 70 70 SSE 7 11 30.01 1016 10 16 0.00 0.00
3:52 pm 15:52 Mostly Cloudy 82 27.8 69 20.6 65 65 SSE 5 7 30.01 1016 10 16 0.00 0.00
4:52 pm 16:52 Mostly Cloudy 81 27.2 67 19.4 62 62 SE 7 11 30.01 1016 10 16 0.00 0.00
5:52 pm 17:52 Cloudy 80 26.7 68 20 67 67 SSE 6 9 30.01 1016 10 16 0.00 0.00
6:52 pm 18:52 Cloudy 80 26.7 68 20 67 67 ESE 6 9 30.01 1016 10 16 0.00 0.00
7:52 pm 19:52 Cloudy 79 26.1 69 20.6 72 72 E 5 7 30.02 1017 10 16 0.00 0.00
8:52 pm 20:52 Cloudy 78 25.6 69 20.6 74 74 SSE 5 7 30.03 1017 10 16 0.00 0.00
9:16 pm 21:16 Cloudy 76 24.4 71 21.7 85 85 SW 7 11 30.04 1017 10 16 0.00 0.00
9:39 pm 21:39 Cloudy 77 25 70 21.1 79 79 Calm 30.03 1017 10 16 0.00 0.00
9:46 pm 21:46 Cloudy 77 25 70 21 79 79 Calm 30.04 1017 10 16 0.00 0.00
9:52 pm 21:52 Cloudy 77 25 70 21.1 79 79 Calm 30.04 1017 10 16 0.00 0.00
10:44 pm 22:44 Cloudy with Light Rain 77 25 71 21.7 82 82 Calm 30.04 1017 6 10 0.00 0.00
10:52 pm 22:52 Cloudy with Light Rain 77 25 71 21.7 82 82 VRB 3 6 30.04 1017 6 10 0.00 0.00
11:01 pm 23:01 Cloudy with Light Rain 76 24.4 71 21.7 85 85 ESE 3 6 30.03 1017 6 10 0.01 0.25
11:52 pm 23:52 Cloudy 76 24.4 71 21.7 85 85 SE 3 6 30.03 1017 10 16 0.01 0.25

Powered by AerisWeather